GFSFLT1_250_spd_009.txt.gz
Wind_Speed
23 24 23 24 25 26 29 31 31 32 33 33 35 36 37 38 41 42 42 40 41 44 46 48 48 50 50 56 48 43 43 46 46
29 30 29 30 30 32 35 36 37 37 37 38 37 39 40 43 45 44 43 43 44 46 48 48 50 52 54 47 48 47 46 45 48
34 35 35 34 34 36 37 38 38 38 40 41 41 42 43 43 45 46 47 47 47 49 52 54 57 50 50 50 49 47 50 50 55
40 40 39 38 39 41 41 41 43 42 42 43 43 44 45 46 47 49 50 52 54 57 57 57 59 55 49 47 46 52 57 57 59
46 45 42 42 43 45 45 45 45 45 46 46 44 45 47 49 51 52 54 55 57 57 57 49 53 56 47 46 55 57 62 65 66
50 49 46 46 48 48 49 49 48 49 49 49 48 50 51 53 54 54 55 55 54 56 48 46 51 51 49 52 58 63 66 65 71
53 52 52 51 51 52 52 53 51 52 54 54 54 54 55 55 53 49 46 50 58 54 47 54 50 57 56 54 59 68 68 71 79
55 55 57 56 56 56 55 56 57 58 59 58 58 57 56 53 49 47 46 50 51 48 50 62 66 60 54 61 69 76 84 85 84
57 60 61 61 59 58 58 59 62 63 63 64 64 62 57 52 51 51 52 49 47 43 44 50 53 67 70 68 76 81 85 86 91
60 62 63 63 62 62 61 63 66 68 69 67 64 59 56 54 55 58 54 52 46 43 45 52 55 65 72 85 86 85 86 89 92
64 66 68 69 68 67 64 67 70 72 71 71 67 61 57 57 58 59 59 57 53 48 47 51 62 67 75 86 89 87 86 83 88
72 73 74 75 74 69 69 71 73 74 73 69 63 59 58 61 63 63 65 61 58 51 51 59 58 65 75 82 82 82 79 77 74
75 77 78 77 75 72 71 72 74 74 72 66 62 64 63 67 70 70 68 64 60 53 54 58 64 69 74 79 80 80 82 81 71
78 79 80 79 78 74 74 72 72 69 67 66 64 65 67 71 73 74 72 70 61 52 48 54 62 57 65 69 81 77 77 78 79
79 77 79 79 78 75 72 69 68 65 66 67 69 71 73 74 77 71 70 61 60 55 50 51 51 52 69 79 79 78 83 86 88
75 74 75 77 76 74 73 70 68 67 69 71 72 73 75 76 75 68 65 57 62 56 58 60 64 69 76 84 78 77 80 89 91
72 75 76 76 78 77 75 72 70 71 75 75 76 76 72 71 69 69 65 60 61 61 62 64 68 70 73 70 80 84 90 89 92
74 77 76 77 80 80 77 75 72 73 76 76 75 73 70 71 73 71 63 59 59 56 55 57 64 69 72 83 90 96 96 94 93
77 79 78 81 80 79 78 76 78 78 78 75 73 74 77 73 72 68 63 63 63 62 67 70 77 77 81 83 87 89 90 92 92
78 82 84 84 80 79 78 78 79 78 76 71 75 75 74 73 72 69 69 69 68 69 73 77 82 80 79 84 81 84 87 91 93

GFSFLT1_250_spd_015.txt.gz
Wind_Speed
28 28 27 28 27 25 24 24 24 24 25 26 27 27 27 29 28 29 29 31 34 36 38 41 44 45 42 43 40 39 38 40 41
32 30 29 28 29 27 28 29 30 30 30 30 30 31 31 30 29 31 31 34 36 41 43 44 44 43 40 43 42 41 41 42 43
38 37 35 35 35 33 34 34 35 35 34 33 33 33 33 33 32 33 34 36 38 42 44 46 40 40 41 45 42 38 40 42 46
45 43 41 41 39 39 39 38 38 37 37 37 36 35 35 36 35 35 38 40 41 44 48 48 42 42 44 45 41 39 42 45 48
50 48 46 45 44 43 42 43 42 41 40 39 40 40 40 40 38 39 41 42 44 48 51 49 44 42 42 47 38 40 49 53 51
54 49 49 49 48 46 47 45 44 43 43 43 44 46 45 44 42 43 43 46 48 51 50 51 45 46 42 45 41 41 47 56 56
59 56 53 52 48 48 48 49 46 44 45 48 49 51 48 47 48 46 48 49 50 52 52 49 43 45 44 47 39 41 47 52 58
64 61 57 56 54 51 50 49 50 48 49 52 54 54 52 51 52 51 53 54 54 53 52 51 49 49 48 49 48 46 54 59 61
69 64 63 63 60 56 54 52 53 53 54 58 58 55 54 55 57 57 57 55 56 56 54 51 49 51 52 52 55 56 58 63 69
77 71 68 68 64 62 60 57 57 57 59 61 61 58 59 61 61 61 62 59 58 57 56 53 53 52 53 58 61 62 65 67 67
83 78 71 69 66 63 62 61 60 59 62 64 65 64 65 66 66 65 65 62 60 60 59 56 54 55 55 57 61 62 69 69 65
87 80 77 74 73 69 67 66 65 64 67 67 70 69 69 70 70 71 70 67 65 63 62 59 57 60 63 64 62 67 67 68 67
94 91 82 79 79 77 73 72 69 69 70 71 73 73 74 74 73 73 72 71 69 67 63 63 63 65 68 68 70 70 68 70 69
95 99 87 84 85 82 80 77 74 74 75 75 77 77 77 76 74 74 73 71 69 68 69 69 68 71 73 73 71 72 70 71 74
101 99 92 91 87 86 84 81 80 78 78 78 81 81 79 78 74 74 72 70 69 70 72 72 75 76 77 76 75 72 70 75 78
101 98 96 92 88 88 87 84 82 81 81 83 82 82 82 79 74 72 72 69 71 72 74 74 77 80 78 78 72 69 76 81 84
99 96 94 90 88 88 88 86 84 83 84 83 84 83 81 77 73 71 70 71 73 75 74 75 80 81 80 78 74 77 84 87 90
96 94 91 89 88 87 85 83 83 82 82 82 82 81 79 77 74 73 75 74 76 77 79 80 80 80 80 81 82 85 89 93 92
95 92 90 88 88 86 85 83 81 80 78 80 81 80 80 78 76 76 77 79 79 80 79 79 81 80 82 83 87 90 91 89 85
88 88 87 86 84 82 82 81 81 82 82 81 79 80 80 77 77 79 79 80 80 81 81 80 83 84 85 86 90 91 86 82 80

GFSFLT1_250_spd_021.txt.gz
Wind_Speed
32 32 31 30 26 24 22 19 20 20 17 17 20 20 21 23 22 22 21 21 23 26 30 32 34 35 39 44 47 45 47 47 44
35 33 33 33 32 33 29 25 26 23 22 20 22 25 25 25 24 24 24 24 24 28 30 35 36 37 39 41 44 47 47 48 46
39 34 33 31 37 36 33 29 28 28 27 24 26 28 28 27 27 27 27 26 27 30 33 36 39 40 42 44 46 48 48 48 47
46 40 37 42 37 34 33 32 30 31 32 31 32 32 31 31 31 31 31 30 30 33 37 39 40 43 45 46 50 51 52 51 50
54 49 45 45 41 39 39 37 34 35 37 36 36 36 35 35 35 35 35 33 35 37 40 42 44 45 48 50 52 53 54 54 54
60 57 52 47 45 45 42 43 40 40 40 40 40 41 41 41 39 39 39 38 39 41 42 44 46 49 52 53 56 59 59 58 57
63 66 62 51 49 47 47 45 46 44 44 43 44 46 46 47 45 43 44 45 46 46 45 46 48 50 52 53 57 60 61 61 59
74 71 66 60 51 52 53 50 50 48 49 47 48 50 50 52 49 49 48 50 51 51 51 50 50 52 54 55 58 62 64 63 61
78 76 71 66 60 57 55 57 55 56 54 53 51 54 56 56 57 54 53 55 57 55 54 55 55 56 56 58 61 63 65 63 61
84 81 79 73 67 62 61 61 63 63 60 56 54 58 61 63 62 60 59 59 61 60 58 59 60 61 62 62 65 66 67 65 64
84 81 83 82 75 68 64 66 66 67 67 64 62 63 65 68 69 68 63 63 65 63 63 64 64 67 67 67 68 69 70 68 67
85 90 88 87 85 77 73 72 68 68 68 69 69 68 70 71 73 73 69 67 68 68 68 69 70 71 71 71 72 73 71 70 69
74 88 93 91 91 85 82 79 73 74 71 72 73 74 76 76 77 75 74 73 73 73 73 73 75 71 74 75 76 76 74 79 77
69 71 86 91 92 91 91 85 79 78 75 74 78 78 79 78 79 79 76 76 77 78 75 77 78 77 78 79 80 79 79 78 78
67 69 74 79 91 93 96 92 90 81 80 80 83 84 83 81 82 82 80 80 80 78 77 78 82 83 83 83 80 79 79 79 81
59 60 66 68 78 87 94 92 93 91 86 87 86 88 87 86 86 84 84 82 79 80 79 82 84 85 85 80 78 78 79 79 78
49 54 58 62 69 77 80 85 92 97 96 93 88 89 88 88 88 88 86 84 84 84 85 86 85 82 79 79 75 76 79 79 78
41 45 38 36 43 55 68 78 81 88 95 92 88 89 91 91 92 90 89 88 88 86 84 84 79 77 77 77 74 78 76 75 73
38 36 24 44 58 55 51 61 73 75 80 88 91 92 86 83 82 84 88 86 82 80 78 78 77 77 72 72 76 73 69 71 74
44 34 28 36 51 56 60 52 55 59 68 76 80 82 84 85 81 72 66 71 75 77 76 72 73 75 72 76 72 69 69 72 76

GFSFLT1_250_spd_024.txt.gz
Wind_Speed
28 31 33 29 25 22 21 18 16 16 16 16 15 17 17 19 21 22 21 20 20 22 23 25 28 30 33 35 37 38 39 39 40
31 35 40 37 32 29 29 24 23 22 21 22 19 20 21 20 23 24 24 23 22 24 26 28 29 32 34 36 38 40 41 41 40
42 42 40 38 41 34 35 30 30 29 29 27 24 24 24 25 26 26 26 26 27 28 30 32 33 35 36 39 40 42 44 44 42
48 44 42 41 40 35 35 36 33 35 34 33 30 28 28 30 29 30 29 30 30 31 33 35 36 38 38 40 42 46 48 49 49
55 48 45 42 40 38 35 37 35 37 37 35 37 33 33 33 33 34 33 33 36 35 37 37 38 39 43 44 45 48 51 54 55
57 55 52 50 48 44 44 40 40 40 40 39 39 42 37 37 37 37 38 38 40 41 43 42 42 43 45 46 48 50 53 54 59
66 62 59 56 50 47 45 48 45 45 45 42 42 45 42 41 41 41 41 42 44 46 48 47 46 47 48 50 51 53 55 57 60
73 68 65 59 59 55 58 55 53 50 48 47 47 48 47 45 45 46 46 46 48 50 52 52 51 52 54 54 55 57 60 61 62
76 74 70 68 65 61 60 58 57 58 54 52 51 52 53 51 51 52 52 51 51 53 55 56 55 54 57 58 59 61 64 65 65
75 79 77 73 73 68 65 62 61 60 61 60 57 56 58 59 58 58 59 57 55 58 60 60 61 60 60 62 63 64 67 67 67
57 68 82 83 80 79 77 72 66 66 65 66 65 62 62 62 64 66 65 64 62 62 63 64 66 65 65 67 67 69 72 70 69
46 58 66 80 84 83 82 77 74 70 68 67 70 70 67 68 68 70 70 70 69 67 66 68 70 68 71 74 74 75 74 71 71
46 51 59 63 67 85 87 84 81 78 76 71 68 73 75 75 75 72 72 74 74 73 70 71 72 72 75 80 81 73 67 76 76
51 51 60 59 65 66 79 87 87 84 79 74 78 77 79 78 79 80 79 78 80 79 77 75 74 76 76 72 55 61 77 71 70
58 53 51 55 58 64 69 77 86 86 83 81 85 85 83 83 84 83 84 83 84 83 82 79 79 79 79 85 73 80 76 76 73
58 55 52 52 56 61 64 69 72 79 84 86 87 89 88 89 88 88 88 88 88 85 86 85 82 76 69 55 69 78 76 79 80
56 56 49 49 55 55 53 53 53 57 62 68 74 82 89 92 90 92 92 88 87 85 87 92 92 82 78 84 85 83 80 82 79
57 51 42 42 48 45 39 35 38 35 36 45 51 57 70 77 82 85 85 82 79 73 65 63 68 54 61 75 78 77 77 78 78
50 42 39 43 36 27 19 23 34 44 48 60 65 61 65 63 66 65 66 61 59 54 46 43 76 75 76 72 74 75 75 80 79
41 40 41 37 26 29 22 21 34 72 67 66 49 57 54 34 29 43 52 48 30 61 75 80 79 88 81 78 75 78 77 75 71

GFSFLT1_250_spd_030.txt.gz
Wind_Speed
22 19 19 22 24 27 27 24 21 20 19 17 17 16 17 16 15 16 17 17 17 17 17 16 17 18 19 21 23 25 28 29 31
29 27 25 25 28 28 26 24 21 19 20 19 19 20 21 19 18 18 20 20 21 21 22 20 19 20 21 23 25 26 30 31 33
33 30 28 29 30 31 27 24 23 23 22 22 22 22 22 23 22 21 21 23 24 26 27 25 24 24 25 26 26 29 32 34 36
37 35 35 34 33 33 32 30 30 29 29 28 28 30 29 29 29 28 25 25 27 29 31 31 31 31 31 31 31 32 35 37 38
43 42 43 40 38 36 34 34 36 38 38 39 37 37 38 37 36 35 32 28 29 33 34 35 35 36 37 37 37 37 38 41 42
50 52 49 45 43 40 40 39 40 40 41 42 42 42 42 41 38 36 35 32 33 36 38 38 37 38 40 40 41 42 43 46 48
55 55 53 51 48 46 46 46 46 44 44 41 40 42 41 41 40 38 38 38 38 39 40 42 40 41 44 44 45 45 47 50 52
44 56 55 56 55 53 53 53 53 54 51 49 46 44 45 45 44 44 43 43 44 44 44 45 44 45 48 49 50 50 50 52 55
25 29 46 53 58 60 62 61 60 60 60 59 56 53 54 52 52 51 51 50 48 49 49 50 51 52 53 54 55 55 55 54 56
26 28 30 32 39 55 66 71 70 68 68 65 61 59 59 60 61 59 59 56 55 55 55 56 58 58 59 60 61 60 58 57 60
30 33 34 36 39 40 42 51 63 74 74 72 68 65 66 64 66 65 64 63 61 61 61 61 62 63 64 65 66 65 63 60 63
36 34 35 32 38 42 46 49 54 56 61 69 75 77 75 75 75 72 69 67 68 67 65 64 66 67 68 71 72 70 69 65 66
43 42 40 36 40 42 46 47 51 58 59 60 64 72 79 82 80 77 73 75 73 73 72 74 74 73 74 76 77 76 74 72 72
51 49 48 43 41 43 44 47 52 56 63 63 66 69 69 73 78 80 82 79 80 78 78 79 80 83 81 82 81 81 79 78 76
56 56 56 54 53 50 48 50 48 48 59 67 70 69 69 68 71 71 70 70 70 71 71 74 73 79 83 80 74 68 68 61 56
62 63 63 61 57 57 53 52 50 50 56 61 66 66 65 63 65 68 66 63 58 55 54 49 53 48 45 47 50 49 41 37 45
68 67 68 65 63 62 60 60 59 53 51 55 62 64 59 59 59 63 62 57 47 35 39 29 43 37 35 28 29 26 36 44 44
76 73 70 71 70 70 67 65 63 60 56 58 60 59 54 56 59 61 57 47 39 33 20 4 9 19 12 9 17 24 35 47 72
77 77 75 78 78 77 75 69 66 66 65 65 65 55 50 55 54 52 46 48 43 24 15 17 21 10 10 18 24 31 31 16 54
84 80 78 78 82 80 76 76 71 72 69 69 64 57 55 59 49 48 50 47 30 25 23 22 17 12 23 22 18 28 43 56 63

GFSFLT1_250_spd_033.txt.gz
Wind_Speed
21 17 18 20 21 24 26 28 27 25 24 22 20 19 17 17 16 15 14 12 14 13 12 13 14 14 15 19 21 20 20 21 22
27 26 22 22 25 24 26 27 25 24 24 24 22 21 20 17 16 17 16 16 16 16 18 18 16 19 21 21 22 26 25 25 26
29 28 27 24 26 27 28 29 27 25 25 24 24 24 22 20 17 17 19 20 20 20 21 24 24 22 24 25 26 27 28 29 30
35 31 30 30 28 26 28 29 30 29 29 29 28 27 27 25 24 23 23 24 25 25 26 26 28 29 28 29 31 30 31 32 34
39 35 35 33 33 30 28 30 33 34 34 35 33 33 32 31 32 31 32 32 31 30 30 29 29 32 32 34 35 36 35 36 38
46 43 42 40 38 36 35 35 36 38 40 41 39 40 38 37 37 39 39 38 37 35 34 34 32 34 35 36 39 40 41 41 42
53 52 50 47 44 42 41 40 41 42 42 44 44 44 42 42 41 37 35 36 36 37 38 38 39 40 41 42 44 45 45 47 48
51 55 55 53 51 49 47 47 47 47 48 47 44 43 44 45 41 41 40 39 39 40 43 43 44 45 46 47 48 50 50 52 54
25 35 52 57 56 55 55 55 55 55 54 54 52 50 51 50 49 48 49 48 48 48 49 50 50 52 53 54 53 54 55 57 58
26 28 29 29 39 53 59 60 60 58 59 59 58 57 56 57 56 57 57 55 55 57 56 56 57 57 58 59 58 59 59 61 60
33 34 30 29 30 31 33 37 46 52 54 58 61 64 63 63 63 64 61 61 61 62 61 62 62 63 63 62 65 65 65 67 66
40 38 37 37 36 37 36 37 39 40 43 48 52 59 64 66 66 69 68 68 70 69 67 69 68 69 69 69 70 71 71 72 72
44 44 43 41 39 38 40 37 36 39 43 46 50 53 55 54 56 59 59 62 66 68 70 72 75 74 73 73 73 74 73 74 69
51 48 47 46 44 44 44 40 37 41 40 40 42 44 48 52 54 55 55 56 56 56 61 63 65 66 65 63 67 65 60 56 44
55 52 53 52 50 48 47 45 43 42 44 45 44 44 44 47 53 57 56 55 56 53 52 60 61 53 55 56 58 55 35 32 23
59 55 54 53 53 54 53 50 50 48 48 48 48 47 47 47 49 53 56 57 52 53 57 58 53 50 53 51 42 32 25 17 12
67 64 61 59 59 58 57 56 54 53 54 53 52 53 51 52 51 51 52 54 47 44 37 59 53 51 48 46 33 27 18 12 17
71 70 68 66 64 64 65 64 63 61 61 60 60 58 56 55 57 57 56 58 56 45 54 66 49 46 39 32 36 32 17 19 19
78 76 75 74 73 71 71 70 69 69 69 68 67 64 63 61 61 61 59 58 56 53 54 54 50 38 42 43 26 25 20 24 27
82 82 82 81 79 77 75 79 77 76 75 73 74 71 67 67 63 63 63 64 61 49 47 52 52 48 42 31 30 29 22 26 33

GFSFLT1_250_spd_036.txt.gz
Wind_Speed
22 24 22 21 26 29 30 29 27 26 26 25 24 21 18 16 15 14 13 12 13 13 12 11 8 10 10 11 13 15 17 19 20
24 29 26 25 28 32 33 31 30 27 26 25 23 21 21 18 16 15 14 15 15 15 16 17 16 15 15 16 14 16 19 22 24
30 29 31 27 30 31 34 34 33 30 30 27 25 25 24 23 20 18 18 16 13 14 17 22 23 21 20 19 20 20 23 25 27
37 33 32 32 29 31 31 31 34 35 35 33 30 28 28 27 24 22 20 19 18 19 22 24 26 28 28 27 25 27 27 30 31
42 39 34 32 32 28 28 31 33 36 35 35 33 32 32 31 29 28 27 26 27 27 28 31 30 30 29 30 29 31 34 34 35
48 46 41 37 36 38 37 36 36 36 38 37 36 36 34 34 33 32 32 33 33 34 34 34 34 33 32 32 32 35 38 39 41
54 49 47 44 42 40 40 41 41 41 41 41 40 39 40 39 38 37 39 39 40 42 41 39 37 35 35 35 37 40 42 44 47
55 54 52 51 49 48 44 41 41 42 42 43 42 42 43 45 44 44 44 44 43 42 41 40 40 41 41 42 44 46 47 48 50
51 54 55 54 53 51 49 48 48 47 46 46 43 44 46 44 45 43 45 45 45 46 45 46 46 48 49 50 52 53 53 53 55
39 47 54 57 57 57 56 56 55 53 52 49 50 51 50 49 50 50 50 51 53 53 53 53 53 53 53 54 56 58 58 58 58
38 38 37 42 43 44 49 54 58 58 55 55 55 55 55 56 57 56 56 57 58 58 57 57 59 59 59 60 61 63 63 63 62
41 40 39 37 36 35 35 37 42 48 54 56 58 61 61 58 57 55 53 54 56 56 56 55 54 53 53 53 55 55 57 57 60
38 38 38 42 40 39 39 37 36 36 37 35 36 37 38 36 36 37 37 40 41 42 43 44 43 43 46 50 52 51 47 53 53
46 42 42 44 41 43 42 41 39 37 36 38 37 34 35 35 35 35 37 41 42 43 44 37 40 45 42 48 47 45 46 50 51
52 49 46 47 45 44 44 43 42 40 38 40 38 37 37 39 40 39 39 37 39 42 44 45 44 46 46 49 52 49 51 51 51
61 55 51 52 51 48 48 48 48 46 44 44 46 45 45 44 44 44 43 42 43 43 45 47 47 45 48 44 47 53 57 50 52
68 64 60 58 57 56 54 54 53 53 53 53 51 52 51 48 48 47 47 47 49 50 50 52 52 49 39 46 45 62 66 63 56
71 71 69 66 64 62 59 59 58 57 57 57 58 59 58 57 56 57 54 52 53 53 57 55 56 61 52 46 54 62 64 63 52
77 75 73 72 71 71 68 65 62 61 62 63 64 64 65 65 64 64 61 59 59 57 60 59 61 61 61 55 46 54 51 52 49
82 79 74 73 72 72 73 72 71 70 69 69 70 69 69 70 70 69 67 65 61 62 64 64 60 64 67 62 55 43 39 37 39